SLI1202 MMGL-MMLP

Flight info

Callsign SLI1202
Flight time 1h 22m
Altitude 30000
Route NOTUP1E NOTUP UJ12S TNY UT15 LAP
Aircraft E145/M-SDFGIRWY/LB1

Departure

Time 2026-04-22 22:23
Airport Guadalajara International Airport (MMGL)

Arrival

Time 2026-04-22 23:45
Airport Manuel Márquez de León International Airport (MMLP)
Time Latitude Longitude Altitude Speed Heading
2026-04-22 21:36 20.52387 -103.30368 5025 ft 0 kts 199°
2026-04-22 22:13 20.52387 -103.30369 5028 ft 0 kts 199°
2026-04-22 22:13 20.52400 -103.30363 5028 ft 2 kts 199°
2026-04-22 22:13 20.52414 -103.30359 5028 ft 2 kts 199°
2026-04-22 22:14 20.52428 -103.30353 5028 ft 2 kts 199°
2026-04-22 22:14 20.52441 -103.30349 5028 ft 0 kts 199°
2026-04-22 22:14 20.52450 -103.30347 5028 ft 1 kts 157°
2026-04-22 22:14 20.52458 -103.30355 5028 ft 1 kts 109°
2026-04-22 22:15 20.52460 -103.30359 5028 ft 0 kts 110°
2026-04-22 22:15 20.52459 -103.30358 5028 ft 0 kts 110°
2026-04-22 22:16 20.52457 -103.30353 5028 ft 1 kts 110°
2026-04-22 22:16 20.52453 -103.30341 5028 ft 2 kts 110°
2026-04-22 22:16 20.52446 -103.30321 5028 ft 3 kts 110°
2026-04-22 22:16 20.52433 -103.30283 5028 ft 7 kts 109°
2026-04-22 22:17 20.52410 -103.30211 5027 ft 14 kts 108°
2026-04-22 22:17 20.52369 -103.30082 5027 ft 20 kts 109°
2026-04-22 22:17 20.52322 -103.29940 5027 ft 20 kts 110°
2026-04-22 22:17 20.52264 -103.29798 5027 ft 21 kts 116°
2026-04-22 22:18 20.52194 -103.29658 5027 ft 21 kts 110°
2026-04-22 22:18 20.52144 -103.29506 5027 ft 21 kts 111°
2026-04-22 22:18 20.52044 -103.29476 5027 ft 16 kts 208°
2026-04-22 22:18 20.51937 -103.29530 5027 ft 17 kts 204°
2026-04-22 22:19 20.51827 -103.29581 5027 ft 17 kts 202°
2026-04-22 22:19 20.51811 -103.29607 5027 ft 3 kts 314°
2026-04-22 22:19 20.51824 -103.29629 5027 ft 0 kts 294°
2026-04-22 22:21 20.51828 -103.29638 5027 ft 10 kts 294°
2026-04-22 22:22 20.51944 -103.29921 5027 ft 73 kts 294°
2026-04-22 22:22 20.52226 -103.30600 5028 ft 123 kts 292°
2026-04-22 22:22 20.52616 -103.31561 5085 ft 152 kts 295°
2026-04-22 22:22 20.53008 -103.32588 5529 ft 153 kts 293°
2026-04-22 22:23 20.53479 -103.33672 5804 ft 173 kts 300°
2026-04-22 22:23 20.54043 -103.34861 6228 ft 186 kts 293°
2026-04-22 22:23 20.54479 -103.36179 6717 ft 192 kts 288°
2026-04-22 22:23 20.54922 -103.37550 7077 ft 202 kts 293°
2026-04-22 22:24 20.55504 -103.38940 7529 ft 206 kts 297°
2026-04-22 22:24 20.56156 -103.40340 7789 ft 220 kts 296°
2026-04-22 22:24 20.56773 -103.41846 8312 ft 221 kts 294°
2026-04-22 22:24 20.57397 -103.43378 8670 ft 230 kts 295°
2026-04-22 22:25 20.58030 -103.44963 9053 ft 238 kts 295°
2026-04-22 22:25 20.58692 -103.46630 9400 ft 248 kts 292°
2026-04-22 22:25 20.59283 -103.48355 9771 ft 255 kts 292°
2026-04-22 22:25 20.59906 -103.50172 10130 ft 263 kts 290°
2026-04-22 22:26 20.60543 -103.52032 10491 ft 271 kts 291°
2026-04-22 22:26 20.61197 -103.53941 10830 ft 279 kts 290°
2026-04-22 22:26 20.61871 -103.55913 11167 ft 287 kts 291°
2026-04-22 22:26 20.62565 -103.57938 11603 ft 291 kts 290°
2026-04-22 22:27 20.63263 -103.59982 11976 ft 296 kts 291°
2026-04-22 22:27 20.63959 -103.62018 12589 ft 292 kts 290°
2026-04-22 22:27 20.64666 -103.64087 12908 ft 300 kts 290°
2026-04-22 22:27 20.65369 -103.66148 13483 ft 297 kts 290°
2026-04-22 22:28 20.66087 -103.68251 13906 ft 301 kts 290°
2026-04-22 22:28 20.66801 -103.70344 14277 ft 306 kts 290°
2026-04-22 22:28 20.67539 -103.72508 14731 ft 308 kts 289°
2026-04-22 22:28 20.68266 -103.74638 15227 ft 308 kts 289°
2026-04-22 22:29 20.69005 -103.76807 15628 ft 311 kts 289°
2026-04-22 22:29 20.69740 -103.78966 16056 ft 313 kts 289°
2026-04-22 22:29 20.70483 -103.81147 16491 ft 315 kts 289°
2026-04-22 22:29 20.71238 -103.83363 16923 ft 317 kts 289°
2026-04-22 22:30 20.71986 -103.85561 17344 ft 319 kts 289°
2026-04-22 22:30 20.72749 -103.87804 17772 ft 321 kts 289°
2026-04-22 22:30 20.73500 -103.90015 18193 ft 322 kts 289°
2026-04-22 22:30 20.74266 -103.92271 18614 ft 324 kts 289°
2026-04-22 22:31 20.75031 -103.94524 19028 ft 325 kts 289°
2026-04-22 22:31 20.75807 -103.96811 19451 ft 327 kts 289°
2026-04-22 22:31 20.76585 -103.99107 19875 ft 328 kts 289°
2026-04-22 22:31 20.77354 -104.01377 20286 ft 329 kts 289°
2026-04-22 22:32 20.78137 -104.03686 20692 ft 330 kts 289°
2026-04-22 22:32 20.78912 -104.05975 21043 ft 332 kts 289°
2026-04-22 22:32 20.79703 -104.08314 21387 ft 333 kts 289°
2026-04-22 22:32 20.80486 -104.10628 21750 ft 334 kts 290°
2026-04-22 22:33 20.81273 -104.12972 22163 ft 333 kts 292°
2026-04-22 22:33 20.82459 -104.15063 22552 ft 332 kts 306°
2026-04-22 22:33 20.83838 -104.17056 22979 ft 331 kts 305°
2026-04-22 22:33 20.85141 -104.19069 23388 ft 329 kts 303°
2026-04-22 22:34 20.86424 -104.21094 23806 ft 328 kts 303°
2026-04-22 22:34 20.87677 -104.23081 24261 ft 326 kts 303°
2026-04-22 22:34 20.88950 -104.25104 24729 ft 324 kts 303°
2026-04-22 22:34 20.90195 -104.27082 25183 ft 322 kts 303°
2026-04-22 22:35 20.91446 -104.29073 25625 ft 320 kts 303°
2026-04-22 22:35 20.92680 -104.31038 26004 ft 319 kts 303°
2026-04-22 22:35 20.93902 -104.32983 26365 ft 317 kts 303°
2026-04-22 22:35 20.95135 -104.34946 26724 ft 316 kts 303°
2026-04-22 22:36 20.96354 -104.36888 27075 ft 315 kts 303°
2026-04-22 22:36 20.97576 -104.38837 27417 ft 314 kts 303°
2026-04-22 22:36 20.98795 -104.40780 27746 ft 313 kts 303°
2026-04-22 22:36 21.00002 -104.42705 28070 ft 312 kts 303°
2026-04-22 22:37 21.01209 -104.44631 28377 ft 311 kts 304°
2026-04-22 22:37 21.02403 -104.46536 28615 ft 310 kts 304°
2026-04-22 22:37 21.03601 -104.48450 28841 ft 309 kts 304°
2026-04-22 22:37 21.04800 -104.50364 29058 ft 309 kts 304°
2026-04-22 22:38 21.05983 -104.52254 29279 ft 308 kts 304°
2026-04-22 22:38 21.07188 -104.54180 29561 ft 307 kts 304°
2026-04-22 22:38 21.08365 -104.56062 29838 ft 307 kts 304°
2026-04-22 22:38 21.09555 -104.57965 30109 ft 306 kts 304°
2026-04-22 22:39 21.10725 -104.59837 30160 ft 313 kts 304°
2026-04-22 22:39 21.13187 -104.63778 30154 ft 326 kts 304°
2026-04-22 22:40 21.15762 -104.67903 30152 ft 336 kts 304°
2026-04-22 22:40 21.18394 -104.72121 30154 ft 346 kts 304°
2026-04-22 22:41 21.21100 -104.76463 30164 ft 354 kts 304°
2026-04-22 22:41 21.23860 -104.80895 30153 ft 363 kts 304°
2026-04-22 22:42 21.26689 -104.85440 30131 ft 370 kts 304°
2026-04-22 22:42 21.29575 -104.90080 30110 ft 377 kts 304°
2026-04-22 22:43 21.32503 -104.94793 30099 ft 383 kts 304°
2026-04-22 22:43 21.35464 -104.99563 30099 ft 388 kts 304°
2026-04-22 22:44 21.38482 -105.04429 30096 ft 392 kts 304°
2026-04-22 22:44 21.41522 -105.09334 30075 ft 397 kts 304°
2026-04-22 22:45 21.44575 -105.14265 30046 ft 401 kts 304°
2026-04-22 22:45 21.47681 -105.19287 30007 ft 405 kts 304°
2026-04-22 22:46 21.50804 -105.24340 29949 ft 409 kts 304°
2026-04-22 22:46 21.53946 -105.29429 29904 ft 410 kts 304°
2026-04-22 22:47 21.57106 -105.34551 29901 ft 411 kts 304°
2026-04-22 22:47 21.60258 -105.39665 29923 ft 412 kts 304°
2026-04-22 22:48 21.63438 -105.44830 29931 ft 414 kts 304°
2026-04-22 22:48 21.66611 -105.49986 29926 ft 415 kts 304°
2026-04-22 22:49 21.69781 -105.55146 29925 ft 415 kts 304°
2026-04-22 22:49 21.72982 -105.60358 29924 ft 416 kts 304°
2026-04-22 22:50 21.76172 -105.65559 29925 ft 416 kts 303°
2026-04-22 22:50 21.79358 -105.70757 29930 ft 417 kts 303°
2026-04-22 22:51 21.82556 -105.75981 29913 ft 418 kts 303°
2026-04-22 22:51 21.85738 -105.81184 29863 ft 416 kts 303°
2026-04-22 22:52 21.88903 -105.86362 29851 ft 414 kts 303°
2026-04-22 22:52 21.92050 -105.91518 29870 ft 414 kts 303°
2026-04-22 22:53 21.95222 -105.96719 29866 ft 414 kts 303°
2026-04-22 22:53 21.98376 -106.01895 29863 ft 415 kts 303°
2026-04-22 22:54 22.01541 -106.07094 29859 ft 415 kts 303°
2026-04-22 22:54 22.04690 -106.12272 29865 ft 415 kts 303°
2026-04-22 22:55 22.07846 -106.17465 29872 ft 415 kts 303°
2026-04-22 22:55 22.12565 -106.25243 29959 ft 413 kts 303°
2026-04-22 22:56 22.15725 -106.30457 30002 ft 413 kts 303°
2026-04-22 22:56 22.18782 -106.35658 30005 ft 414 kts 299°
2026-04-22 22:57 22.21500 -106.41181 30011 ft 415 kts 298°
2026-04-22 22:57 22.24194 -106.46651 30008 ft 416 kts 298°
2026-04-22 22:58 22.26918 -106.52183 30007 ft 416 kts 298°
2026-04-22 22:58 22.29629 -106.57697 30005 ft 417 kts 298°
2026-04-22 22:59 22.32328 -106.63194 30003 ft 417 kts 298°
2026-04-22 22:59 22.35045 -106.68731 30010 ft 418 kts 298°
2026-04-22 23:00 22.37774 -106.74300 30009 ft 419 kts 298°
2026-04-22 23:00 22.40493 -106.79855 30008 ft 419 kts 298°
2026-04-22 23:01 22.43218 -106.85426 30006 ft 420 kts 298°
2026-04-22 23:01 22.45942 -106.91003 30005 ft 420 kts 298°
2026-04-22 23:02 22.48661 -106.96575 30004 ft 419 kts 298°
2026-04-22 23:02 22.51372 -107.02138 30003 ft 419 kts 298°
2026-04-22 23:03 22.54083 -107.07707 30002 ft 419 kts 298°
2026-04-22 23:03 22.56785 -107.13263 30001 ft 418 kts 298°
2026-04-22 23:04 22.59488 -107.18826 30000 ft 418 kts 298°
2026-04-22 23:04 22.62196 -107.24406 29999 ft 418 kts 298°
2026-04-22 23:05 22.64887 -107.29958 29998 ft 418 kts 298°
2026-04-22 23:05 22.67578 -107.35516 29997 ft 418 kts 298°
2026-04-22 23:06 22.70277 -107.41097 29996 ft 417 kts 298°
2026-04-22 23:06 22.72957 -107.46644 29995 ft 417 kts 298°
2026-04-22 23:07 22.75637 -107.52197 29995 ft 417 kts 298°
2026-04-22 23:07 22.78315 -107.57752 29998 ft 416 kts 298°
2026-04-22 23:08 22.81001 -107.63332 29999 ft 416 kts 298°
2026-04-22 23:08 22.83663 -107.68865 30007 ft 416 kts 297°
2026-04-22 23:09 22.86346 -107.74449 30007 ft 416 kts 297°
2026-04-22 23:09 22.89021 -107.80022 30008 ft 416 kts 297°
2026-04-22 23:10 22.91686 -107.85583 30005 ft 417 kts 297°
2026-04-22 23:10 22.94354 -107.91154 30000 ft 416 kts 297°
2026-04-22 23:11 22.97011 -107.96711 29996 ft 415 kts 297°
2026-04-22 23:11 22.99666 -108.02266 29996 ft 414 kts 297°
2026-04-22 23:12 23.02294 -108.07773 30016 ft 413 kts 297°
2026-04-22 23:12 23.04941 -108.13326 30019 ft 414 kts 297°
2026-04-22 23:13 23.07575 -108.18859 29998 ft 414 kts 297°
2026-04-22 23:13 23.10204 -108.24386 29998 ft 413 kts 297°
2026-04-22 23:14 23.12823 -108.29898 30003 ft 412 kts 297°
2026-04-22 23:14 23.15440 -108.35413 30003 ft 411 kts 297°
2026-04-22 23:15 23.18052 -108.40925 30001 ft 411 kts 297°
2026-04-22 23:15 23.20665 -108.46443 29997 ft 410 kts 297°
2026-04-22 23:16 23.23263 -108.51936 29993 ft 410 kts 297°
2026-04-22 23:16 23.25861 -108.57435 29988 ft 410 kts 297°
2026-04-22 23:17 23.28454 -108.62929 29985 ft 409 kts 297°
2026-04-22 23:17 23.31050 -108.68436 29994 ft 409 kts 297°
2026-04-22 23:18 23.33636 -108.73928 29995 ft 409 kts 297°
2026-04-22 23:18 23.36228 -108.79441 29995 ft 409 kts 297°
2026-04-22 23:19 23.38823 -108.84965 29945 ft 408 kts 297°
2026-04-22 23:19 23.41388 -108.90432 29939 ft 404 kts 297°
2026-04-22 23:20 23.43932 -108.95858 29985 ft 402 kts 297°
2026-04-22 23:20 23.46471 -109.01283 29987 ft 404 kts 297°
2026-04-22 23:21 23.49023 -109.06740 29987 ft 406 kts 297°
2026-04-22 23:21 23.51582 -109.12218 29986 ft 408 kts 297°
2026-04-22 23:22 23.54153 -109.17727 29873 ft 413 kts 297°
2026-04-22 23:22 23.55461 -109.20533 29356 ft 416 kts 297°
2026-04-22 23:22 23.56775 -109.23354 28856 ft 418 kts 297°
2026-04-22 23:23 23.58086 -109.26170 28358 ft 419 kts 297°
2026-04-22 23:23 23.59400 -109.28992 27862 ft 421 kts 297°
2026-04-22 23:23 23.60729 -109.31851 27359 ft 421 kts 297°
2026-04-22 23:23 23.62044 -109.34678 26862 ft 421 kts 296°
2026-04-22 23:24 23.63353 -109.37496 26366 ft 421 kts 296°
2026-04-22 23:24 23.64681 -109.40356 25863 ft 421 kts 296°
2026-04-22 23:24 23.65988 -109.43175 25367 ft 421 kts 296°
2026-04-22 23:24 23.67302 -109.46008 24870 ft 421 kts 296°
2026-04-22 23:25 23.68630 -109.48873 24367 ft 421 kts 296°
2026-04-22 23:25 23.69929 -109.51678 23867 ft 419 kts 296°
2026-04-22 23:25 23.71253 -109.54538 23346 ft 418 kts 296°
2026-04-22 23:25 23.72546 -109.57333 22838 ft 416 kts 296°
2026-04-22 23:26 23.73840 -109.60132 22328 ft 415 kts 296°
2026-04-22 23:26 23.75139 -109.62944 21817 ft 414 kts 295°
2026-04-22 23:26 23.76428 -109.65734 21312 ft 412 kts 295°
2026-04-22 23:26 23.77721 -109.68536 20815 ft 411 kts 295°
2026-04-22 23:27 23.78995 -109.71298 20323 ft 410 kts 295°
2026-04-22 23:27 23.80268 -109.74060 19741 ft 409 kts 295°
2026-04-22 23:27 23.81547 -109.76835 19122 ft 405 kts 295°
2026-04-22 23:27 23.82802 -109.79560 18510 ft 401 kts 295°
2026-04-22 23:28 23.84043 -109.82258 17902 ft 398 kts 295°
2026-04-22 23:28 23.85285 -109.84957 17289 ft 394 kts 295°
2026-04-22 23:28 23.86509 -109.87620 16681 ft 391 kts 295°
2026-04-22 23:28 23.87707 -109.90234 16085 ft 390 kts 295°
2026-04-22 23:29 23.88928 -109.92894 15474 ft 387 kts 295°
2026-04-22 23:29 23.90125 -109.95503 14873 ft 384 kts 295°
2026-04-22 23:29 23.91311 -109.98089 14274 ft 382 kts 295°
2026-04-22 23:29 23.92492 -110.00667 13674 ft 379 kts 295°
2026-04-22 23:30 23.93666 -110.03228 13073 ft 373 kts 295°
2026-04-22 23:30 23.94812 -110.05728 12466 ft 361 kts 295°
2026-04-22 23:30 23.95917 -110.08142 11865 ft 351 kts 295°
2026-04-22 23:30 23.96991 -110.10491 11266 ft 342 kts 294°
2026-04-22 23:31 23.98028 -110.12759 10677 ft 335 kts 294°
2026-04-22 23:31 23.99062 -110.15016 10081 ft 329 kts 295°
2026-04-22 23:31 24.00446 -110.16969 9481 ft 328 kts 318°
2026-04-22 23:31 24.02454 -110.18108 8899 ft 329 kts 343°
2026-04-22 23:32 24.04728 -110.18220 8316 ft 329 kts
2026-04-22 23:32 24.06840 -110.17273 7767 ft 327 kts 33°
2026-04-22 23:32 24.08711 -110.16026 7532 ft 311 kts 19°
2026-04-22 23:32 24.10797 -110.15695 7244 ft 286 kts 350°
2026-04-22 23:33 24.12660 -110.16210 7066 ft 268 kts 342°
2026-04-22 23:33 24.14390 -110.16830 6822 ft 260 kts 338°
2026-04-22 23:33 24.16081 -110.17529 6579 ft 254 kts 333°
2026-04-22 23:33 24.17638 -110.18394 6340 ft 248 kts 328°
2026-04-22 23:34 24.19066 -110.19382 6105 ft 243 kts 322°
2026-04-22 23:34 24.20270 -110.20634 5862 ft 234 kts 297°
2026-04-22 23:34 24.20628 -110.22283 5657 ft 223 kts 262°
2026-04-22 23:34 24.20175 -110.23893 5453 ft 224 kts 248°
2026-04-22 23:35 24.19535 -110.25485 5227 ft 232 kts 237°
2026-04-22 23:35 24.18472 -110.26819 5015 ft 237 kts 224°
2026-04-22 23:35 24.17221 -110.28050 4787 ft 243 kts 221°
2026-04-22 23:35 24.15933 -110.29236 4555 ft 242 kts 220°
2026-04-22 23:36 24.14643 -110.30402 4320 ft 241 kts 220°
2026-04-22 23:36 24.13346 -110.31567 4084 ft 240 kts 220°
2026-04-22 23:36 24.12048 -110.32733 3846 ft 238 kts 220°
2026-04-22 23:36 24.10792 -110.33859 3611 ft 234 kts 220°
2026-04-22 23:37 24.09543 -110.34979 3373 ft 231 kts 220°
2026-04-22 23:37 24.08270 -110.36028 3222 ft 223 kts 210°
2026-04-22 23:37 24.06922 -110.36812 3103 ft 218 kts 209°
2026-04-22 23:37 24.05585 -110.37594 2984 ft 216 kts 209°
2026-04-22 23:38 24.04247 -110.38373 2865 ft 215 kts 209°
2026-04-22 23:38 24.02945 -110.39131 2807 ft 211 kts 209°
2026-04-22 23:38 24.01626 -110.39899 2694 ft 212 kts 209°
2026-04-22 23:38 24.00324 -110.40655 2579 ft 211 kts 208°
2026-04-22 23:39 23.99039 -110.41403 2458 ft 207 kts 208°
2026-04-22 23:39 23.97788 -110.42130 2332 ft 199 kts 209°
2026-04-22 23:39 23.96597 -110.42822 2246 ft 189 kts 209°
2026-04-22 23:39 23.95441 -110.43493 2160 ft 184 kts 208°
2026-04-22 23:40 23.94256 -110.43916 2073 ft 178 kts 183°
2026-04-22 23:40 23.93070 -110.43662 2067 ft 173 kts 154°
2026-04-22 23:40 23.92153 -110.42825 2033 ft 170 kts 124°
2026-04-22 23:40 23.91732 -110.41660 2030 ft 166 kts 96°
2026-04-22 23:41 23.91877 -110.40403 2033 ft 168 kts 63°
2026-04-22 23:41 23.92669 -110.39498 2051 ft 164 kts 32°
2026-04-22 23:41 23.93712 -110.38957 1877 ft 171 kts 17°
2026-04-22 23:41 23.94890 -110.38695 1648 ft 170 kts 17°
2026-04-22 23:42 23.96011 -110.38360 1426 ft 160 kts 11°
2026-04-22 23:42 23.97067 -110.38113 1292 ft 151 kts 11°
2026-04-22 23:42 23.98088 -110.37891 1146 ft 146 kts
2026-04-22 23:42 23.99067 -110.37738 1004 ft 142 kts
2026-04-22 23:43 24.00032 -110.37606 963 ft 138 kts 11°
2026-04-22 23:43 24.00981 -110.37350 909 ft 139 kts 12°
2026-04-22 23:43 24.01926 -110.37117 846 ft 141 kts 10°
2026-04-22 23:43 24.02907 -110.36919 728 ft 144 kts
2026-04-22 23:44 24.03878 -110.36752 577 ft 139 kts
2026-04-22 23:44 24.04823 -110.36614 406 ft 137 kts
2026-04-22 23:44 24.05757 -110.36469 226 ft 131 kts
2026-04-22 23:44 24.06641 -110.36346 104 ft 118 kts
2026-04-22 23:45 24.07306 -110.36249 102 ft 71 kts
2026-04-22 23:45 24.07637 -110.36201 101 ft 32 kts
2026-04-22 23:45 24.07744 -110.36243 101 ft 16 kts 281°
2026-04-22 23:45 24.07756 -110.36369 101 ft 17 kts 275°
2026-04-22 23:46 24.07772 -110.36503 101 ft 16 kts 276°
2026-04-22 23:46 24.07731 -110.36561 101 ft 9 kts 187°
2026-04-22 23:46 24.07715 -110.36602 101 ft 7 kts 278°
2026-04-22 23:46 24.07717 -110.36619 101 ft 0 kts 276°